[[{"header":{"parameterUnit":"m.s-1","parameterCategory":1,"la1":30.2991,"la2":30.254,"lo1":-89.0895,"lo2":-89.0444,"dy":0.0017,"dx":0.0017,"nx":28,"ny":28,"refTime":"2024-09-28T21:00:00:Z","depth":0,"parameterNumber":2,"parameterNumberName":"U-component_of_WINDS"},"data":[0,0,0,0,0,0,0,0,0,0,0,0,0,0,0,0,0,0,0,0,0,0,0,0,0,0,0,0,0,0,0,0,0,0,0,0,0,0,0,0,0,0,0,0,0,0,0,0,0,0,0,0,0,0,0,0,0,0,3.2242,3.2244,0,3.2429,3.2432,3.2434,3.2436,3.2433,3.2431,3.2428,3.2626,3.2633,3.2641,0,0,0,0,0,0,0,0,0,0,0,0,0,3.189,3.1896,3.2242,3.2244,3.2246,3.2429,3.2432,3.2434,3.2436,3.2433,3.243,3.2427,3.2623,3.2632,3.2641,0,0,0,0,0,0,0,0,0,0,0,0,0,3.2057,3.1898,3.2241,3.2269,3.2273,3.2429,3.2432,3.2435,3.2437,3.2433,3.2429,3.2426,3.2621,3.2631,3.2643,3.2784,0,0,3.2677,3.2682,0,0,0,0,0,0,0,0,3.2047,3.207,3.2263,3.2267,3.2273,3.2405,3.238,3.2552,3.2437,3.2375,3.2428,3.2424,3.2556,3.2572,3.2615,3.2793,3.2802,3.2678,3.2685,3.269,3.2693,0,0,0,0,0,0,0,3.2036,3.2062,3.2316,3.2265,3.2272,3.2274,3.2294,3.2413,3.2483,3.238,3.2381,3.2402,3.2558,3.2605,3.262,3.2805,3.2678,3.2688,3.2695,3.2699,3.3108,3.3112,0,0,0,0,0,0,3.2018,3.2052,3.231,3.2322,3.2149,3.2283,3.2305,3.2366,3.2482,3.2496,3.2405,3.2402,3.2587,3.2607,3.2627,3.28,3.2689,3.27,3.2706,3.3104,3.3109,3.3114,0,0,0,0,0,0,3.201,3.2041,3.2303,3.2187,3.222,3.2293,3.2362,3.2372,3.2419,3.2501,3.2514,3.244,3.2585,3.2611,3.2745,3.2807,3.2705,3.2715,3.31,3.3106,3.3112,3.3147,0,0,0,0,0,0,3.2,3.2038,3.2091,3.2188,3.2227,3.2416,3.2366,3.2378,3.2437,3.2435,3.2537,3.255,3.2584,3.2728,3.2756,3.2821,3.2724,3.3094,3.3102,3.311,3.3141,3.3154,3.3165,0,0,0,0,0,3.1987,3.2095,3.2094,3.2125,3.2294,3.2419,3.2441,3.2476,3.2442,3.2497,3.255,3.2547,3.2796,3.2741,3.2773,3.2842,3.309,3.31,3.3109,3.3135,3.3151,3.3165,0,0,0,0,0,0,3.2005,3.2108,3.2108,3.225,3.2325,3.2419,3.2489,3.2492,3.2581,3.2574,3.2616,3.2639,3.2772,3.2821,3.2759,3.2985,3.2939,3.2955,3.2948,3.2964,3.2976,3.2962,3.2733,0,0,0,0,0,3.2025,3.2116,3.2202,3.2319,3.2357,3.2417,3.2472,3.2493,3.2573,3.2606,3.2669,3.2749,3.2845,3.2907,3.3,3.3148,3.3171,3.3211,3.3223,3.3233,3.3246,3.3328,3.3347,3.3144,3.3144,3.3144,0,0,3.2069,3.2136,3.2191,3.2324,3.2385,3.248,3.2444,3.2545,3.2616,3.2622,3.2751,3.28,3.2892,3.3033,3.3099,3.3078,3.3307,3.3245,3.3252,3.326,3.334,3.3359,3.3376,3.3151,3.315,3.3149,0,0,3.2195,3.2255,3.2359,3.242,3.2513,3.2552,3.2576,3.267,3.2702,3.2832,3.2838,3.2925,3.3089,3.3154,3.3209,3.3361,3.3361,3.339,3.3453,3.3533,3.3549,3.3563,3.3617,3.3636,3.3403,3.3403,3.3403,0,3.2238,3.2378,3.2412,3.2514,3.2573,3.258,3.2686,3.2745,3.2864,3.2905,3.288,3.3086,3.3149,3.3305,3.3342,3.3386,3.3417,3.3378,3.3543,3.3558,3.3572,3.3624,3.3644,3.3406,3.3406,3.3406,3.3405,0,3.2426,3.2524,3.2597,3.2709,3.2776,3.288,3.293,3.2995,3.301,3.3052,3.3185,3.326,3.3368,3.3407,3.3424,3.3567,3.3551,3.3534,3.3489,3.3594,3.3643,3.3664,3.341,3.3409,3.3408,3.3408,0,0,3.2569,3.2698,3.2724,3.2775,3.2877,3.2955,3.3059,3.3163,3.3217,3.33,3.3389,3.3528,3.3513,3.3575,3.3599,3.3669,3.3784,3.3644,3.3647,3.3667,3.3946,3.3958,3.398,3.3785,3.3789,3.3792,3.3939,0,3.2706,3.2889,3.2923,3.3083,3.3175,3.3184,3.3275,3.3348,3.3391,3.3476,3.3524,3.3621,3.3594,3.3632,3.3701,3.3755,3.3841,3.3745,3.387,3.3874,3.3846,3.4006,3.4019,3.4153,3.3958,3.3962,3.3964,0,3.289,3.2975,3.3144,3.3233,3.3273,3.3354,3.3452,3.3533,3.3617,3.3643,3.3713,3.3729,3.3839,3.3789,3.3942,3.3876,3.393,3.3964,3.397,3.3983,3.3925,3.4023,3.4197,3.4217,3.3995,3.3992,3.399,0,3.2977,3.3133,3.3254,3.3298,3.3406,3.3463,3.3511,3.3591,3.3652,3.3738,3.3778,3.3877,3.3932,3.4009,3.4052,3.4011,3.4203,3.4156,3.4228,3.4227,3.4268,3.4265,3.4453,3.4303,3.4303,3.4302,3.4302,0,3.3126,3.3229,3.3294,3.3369,3.3485,3.3524,3.3638,3.3686,3.3757,3.3842,3.3857,3.3937,3.3989,3.4078,3.4112,3.4234,3.4259,3.4284,3.4292,3.4283,3.428,3.4318,3.431,3.4308,3.4306,3.4305,3.4304,0,3.3242,3.329,3.3423,3.3514,3.3539,3.3621,3.3699,3.3773,3.3815,3.3923,3.3951,3.4018,3.4123,3.4173,3.4303,3.4327,3.4465,3.4467,3.4436,3.4439,3.4509,3.4501,3.4728,3.4759,3.4588,3.459,3.4591,0,3.3334,3.3413,3.3512,3.3569,3.3618,3.371,3.3772,3.3813,3.3877,3.3979,3.4041,3.4145,3.4231,3.4398,3.446,3.456,3.4564,3.4637,3.4579,3.4567,3.4565,3.456,3.4568,3.4647,3.4648,3.465,3.4651,0,3.3492,3.3512,3.3598,3.3694,3.3766,3.3844,3.392,3.3967,3.4021,3.4092,3.4198,3.4264,3.4396,3.45,3.4605,3.4656,3.4664,3.4668,3.469,3.4681,3.466,3.4672,3.4463,3.4663,3.4662,3.4661,3.466,3.466,3.3599,3.367,3.375,3.3846,3.3908,3.3979,3.4052,3.4103,3.4192,3.4301,3.4321,3.4433,3.4517,3.4657,3.4712,3.4802,3.4786,3.4818,3.4827,3.4834,3.4837,3.4645,3.4822,3.4822,3.4821,3.4821,3.4821,0,3.3757,3.3809,3.3897,3.4003,3.4079,3.4077,3.4162,3.4226,3.4324,3.4401,3.4484,3.4606,3.4708,3.4777,3.488,3.4939,3.4945,3.4965,3.4961,3.4973,3.4846,3.4816,3.4958,3.4958,3.4958,3.4958,3.4958,3.4958,3.3849,3.3968,3.3997,3.4148,3.42,3.4308,3.4357,3.4423,3.4484,3.4619,3.4702,3.4746,3.4821,3.4929,3.5023,3.5041,3.5078,3.5098,3.5116,3.4996,3.4982,3.4968,3.494,3.5106,3.5106,3.5236,3.5237,3.5238]},{"header":{"parameterUnit":"m.s-1","parameterCategory":1,"la1":30.2991,"la2":30.254,"lo1":-89.0895,"lo2":-89.0444,"dy":0.0017,"dx":0.0017,"nx":28,"ny":28,"refTime":"2024-09-28T21:00:00:Z","depth":0,"parameterNumber":3,"parameterNumberName":"V-component_of_WINDS"},"data":[0,0,0,0,0,0,0,0,0,0,0,0,0,0,0,0,0,0,0,0,0,0,0,0,0,0,0,0,0,0,0,0,0,0,0,0,0,0,0,0,0,0,0,0,0,0,0,0,0,0,0,0,0,0,0,0,0,0,2.5161,2.5162,0,2.5268,2.5269,2.5271,2.5272,2.527,2.5269,2.5268,2.5378,2.5382,2.5387,0,0,0,0,0,0,0,0,0,0,0,0,0,2.4958,2.4961,2.5161,2.5162,2.5164,2.5268,2.5269,2.5271,2.5272,2.527,2.5269,2.5267,2.5377,2.5382,2.5387,0,0,0,0,0,0,0,0,0,0,0,0,0,2.5053,2.4963,2.5161,2.5177,2.5179,2.5268,2.5269,2.5271,2.5272,2.527,2.5268,2.5266,2.5375,2.5381,2.5388,2.5468,0,0,2.5407,2.541,0,0,0,0,0,0,0,0,2.5048,2.5061,2.5173,2.5176,2.5179,2.5254,2.5238,2.5337,2.5273,2.5237,2.5268,2.5265,2.5339,2.5348,2.5373,2.5473,2.5478,2.5408,2.5411,2.5414,2.5416,0,0,0,0,0,0,0,2.5041,2.5056,2.5203,2.5175,2.5178,2.5179,2.519,2.5257,2.5298,2.524,2.524,2.5253,2.534,2.5367,2.5375,2.5479,2.5407,2.5413,2.5417,2.5419,2.5651,2.5653,0,0,0,0,0,0,2.5031,2.5051,2.52,2.5207,2.5107,2.5184,2.5197,2.5232,2.5297,2.5305,2.5255,2.5253,2.5357,2.5368,2.5379,2.5477,2.5414,2.542,2.5424,2.5648,2.5651,2.5654,0,0,0,0,0,0,2.5027,2.5045,2.5196,2.5129,2.5148,2.519,2.523,2.5235,2.5262,2.5308,2.5316,2.5274,2.5356,2.537,2.5446,2.5481,2.5423,2.5429,2.5645,2.5649,2.5652,2.5674,0,0,0,0,0,0,2.5021,2.5043,2.5074,2.5129,2.5152,2.526,2.5232,2.5239,2.5273,2.5271,2.5329,2.5336,2.5355,2.5436,2.5452,2.5489,2.5433,2.5642,2.5647,2.5651,2.5671,2.5678,2.5685,0,0,0,0,0,2.5014,2.5076,2.5075,2.5093,2.5191,2.5262,2.5275,2.5295,2.5276,2.5307,2.5337,2.5334,2.5475,2.5444,2.5462,2.5501,2.564,2.5646,2.5651,2.5668,2.5677,2.5685,0,0,0,0,0,0,2.5024,2.5084,2.5084,2.5165,2.5209,2.5262,2.5303,2.5304,2.5354,2.5351,2.5374,2.5387,2.5462,2.5489,2.5454,2.5582,2.5555,2.5564,2.5562,2.5571,2.5578,2.557,2.5439,0,0,0,0,0,2.5035,2.5088,2.5138,2.5205,2.5227,2.5261,2.5293,2.5304,2.535,2.5369,2.5404,2.5449,2.5503,2.5538,2.5591,2.5674,2.5687,2.571,2.5717,2.5723,2.5731,2.5777,2.5788,2.5671,2.5671,2.5671,0,0,2.506,2.5099,2.5131,2.5208,2.5243,2.5297,2.5276,2.5335,2.5375,2.5378,2.5451,2.5479,2.553,2.561,2.5647,2.5635,2.5766,2.5729,2.5733,2.5738,2.5784,2.5795,2.5805,2.5675,2.5674,2.5673,0,0,2.5133,2.5168,2.5228,2.5263,2.5316,2.5338,2.5353,2.5406,2.5425,2.5498,2.5501,2.555,2.5643,2.568,2.571,2.5797,2.5797,2.5813,2.585,2.5895,2.5905,2.5913,2.5944,2.5955,2.5821,2.5821,2.5821,0,2.5157,2.5239,2.5258,2.5317,2.5351,2.5355,2.5416,2.545,2.5517,2.5541,2.5526,2.5642,2.5677,2.5766,2.5787,2.5812,2.5829,2.5807,2.5902,2.591,2.5918,2.5948,2.596,2.5822,2.5822,2.5822,2.5822,0,2.5266,2.5323,2.5365,2.543,2.5469,2.5528,2.5557,2.5593,2.5602,2.5626,2.5701,2.5743,2.5804,2.5826,2.5834,2.5916,2.5907,2.5897,2.587,2.5931,2.596,2.5971,2.5825,2.5824,2.5824,2.5823,0,0,2.5349,2.5424,2.5439,2.5469,2.5527,2.5572,2.5631,2.5691,2.5722,2.5768,2.5819,2.5897,2.5888,2.5923,2.5936,2.5976,2.6042,2.5961,2.5962,2.5975,2.6135,2.6143,2.6156,2.6042,2.6044,2.6046,2.6131,0,2.5429,2.5535,2.5554,2.5647,2.57,2.5704,2.5756,2.5798,2.5822,2.587,2.5897,2.5952,2.5935,2.5957,2.5996,2.6026,2.6075,2.602,2.609,2.6093,2.6078,2.6171,2.618,2.6258,2.6142,2.6144,2.6146,0,2.5536,2.5585,2.5683,2.5735,2.5758,2.5804,2.586,2.5906,2.5954,2.5968,2.6007,2.6015,2.6078,2.6048,2.6135,2.6097,2.6127,2.6146,2.6149,2.6158,2.6124,2.6183,2.6284,2.6296,2.6164,2.6162,2.6161,0,2.5588,2.5678,2.5748,2.5773,2.5835,2.5868,2.5895,2.594,2.5975,2.6024,2.6047,2.6102,2.6133,2.6176,2.6199,2.6175,2.6285,2.6257,2.6299,2.6299,2.6323,2.6321,2.6431,2.6341,2.634,2.634,2.634,0,2.5675,2.5735,2.5772,2.5816,2.5883,2.5904,2.597,2.5997,2.6037,2.6086,2.6093,2.6139,2.6167,2.6216,2.6235,2.6304,2.6318,2.6332,2.6336,2.6332,2.633,2.6353,2.6348,2.6343,2.6343,2.6342,2.6341,0,2.5744,2.5771,2.5849,2.59,2.5915,2.5962,2.6007,2.605,2.6073,2.6135,2.6151,2.6188,2.6247,2.6274,2.6347,2.6359,2.6439,2.6439,2.6423,2.6424,2.6466,2.6462,2.6594,2.6613,2.6509,2.651,2.6511,0,2.5799,2.5845,2.5902,2.5935,2.5963,2.6016,2.6051,2.6074,2.6111,2.6168,2.6204,2.6263,2.6312,2.6406,2.644,2.6496,2.6498,2.654,2.6506,2.65,2.6499,2.6497,2.6502,2.6547,2.6548,2.6549,2.6549,0,2.5893,2.5904,2.5954,2.6009,2.6051,2.6096,2.614,2.6166,2.6196,2.6237,2.6297,2.6335,2.6409,2.6468,2.6526,2.6555,2.6558,2.6559,2.6573,2.6569,2.6558,2.6565,2.644,2.6557,2.6556,2.6555,2.6555,2.6555,2.5957,2.5998,2.6045,2.6101,2.6136,2.6177,2.6219,2.6248,2.6298,2.6361,2.6371,2.6435,2.6482,2.656,2.6591,2.6642,2.6632,2.665,2.6655,2.666,2.6663,2.6549,2.6652,2.6652,2.6652,2.6652,2.6652,0,2.6052,2.6082,2.6133,2.6194,2.6238,2.6236,2.6284,2.6321,2.6378,2.6421,2.6468,2.6538,2.6595,2.6633,2.6691,2.6725,2.6728,2.6739,2.6738,2.6744,2.6668,2.6651,2.6736,2.6736,2.6736,2.6736,2.6736,2.6736,2.6106,2.6177,2.6193,2.6281,2.6311,2.6374,2.6402,2.6439,2.6474,2.6551,2.6598,2.6623,2.6664,2.6725,2.6777,2.6787,2.6809,2.6821,2.6831,2.6758,2.675,2.6741,2.6726,2.6825,2.6825,2.6903,2.6904,2.6904]}]]